Wetbulb
65.91 65.55 62.53 58.29 51.47 50.59 48.34 50.14 55.04 55.59 56.39 61.95 65.45 62.79 62.99 65.66 64.17 61.64 75.32 76.07 76.20 78.07 79.61 77.25 77.61 78.17 78.09 78.04 77.46 77.16 76.60 76.17 76.22 76.73 76.75 76.75 76.90 76.98 76.80 76.55 76.14 74.96 74.33 74.16 73.60 73.52 74.05 73.65 73.11
64.82 60.95 59.97 55.85 49.00 47.02 48.61 52.91 51.50 54.31 58.46 59.72 58.28 58.96 59.63 61.15 68.23 70.63 72.88 75.31 76.38 78.59 79.35 77.56 77.43 77.91 77.99 77.79 77.16 76.52 76.42 76.10 76.48 76.68 76.90 76.83 76.88 76.80 76.25 76.38 75.76 74.53 74.09 73.44 73.36 73.66 73.65 73.02 72.67
60.89 62.09 55.41 52.00 50.15 47.21 48.93 52.91 53.04 54.39 57.29 56.60 56.12 60.19 60.72 63.22 69.24 71.42 74.42 75.86 76.32 78.45 78.51 77.43 77.36 77.63 77.89 77.76 77.03 76.52 76.25 76.35 76.75 76.83 76.85 76.93 76.75 76.60 76.65 76.33 75.46 74.50 73.78 73.66 73.98 73.77 72.55 72.37 72.32
59.09 58.31 56.96 49.45 48.37 51.56 51.82 53.60 53.02 53.20 54.32 55.82 55.98 54.37 59.28 68.70 69.93 70.93 73.87 73.67 74.16 77.97 78.55 76.00 77.13 77.25 77.56 77.53 77.13 76.65 76.60 76.60 76.90 76.90 76.75 76.70 76.30 76.30 76.10 75.70 75.48 75.05 74.37 74.29 73.51 72.85 72.35 72.04 72.15
59.20 56.47 49.93 48.47 48.50 51.19 53.24 53.63 53.61 52.64 53.33 53.54 54.15 53.29 55.92 64.14 64.21 67.05 70.85 75.10 74.11 77.35 78.60 76.86 76.93 77.20 77.41 77.23 77.13 76.95 76.80 76.67 76.75 76.85 76.65 76.15 75.67 75.52 75.50 75.57 75.33 74.66 74.14 73.69 73.21 72.60 72.05 72.08 72.56
53.50 53.50 47.84 46.36 48.73 51.93 53.17 54.04 53.17 52.89 53.72 54.05 53.54 54.32 55.86 64.17 64.33 67.79 71.08 73.47 76.28 77.22 78.41 77.68 76.37 76.92 76.82 76.93 76.90 76.59 76.57 76.47 76.52 76.60 76.32 75.85 75.37 75.47 75.25 75.22 75.03 74.64 74.16 73.70 72.82 72.17 71.73 72.22 72.97
52.52 51.47 47.32 47.70 48.15 49.83 51.15 54.78 52.42 53.43 53.12 53.41 56.06 52.96 57.16 59.36 62.12 65.68 73.07 73.06 75.94 77.47 77.75 77.32 74.59 76.10 76.65 76.57 76.51 76.41 76.13 76.19 76.11 75.81 75.71 75.62 75.37 75.17 75.17 75.30 75.01 74.45 73.82 72.70 71.82 71.52 71.52 72.04 72.98
53.53 52.16 48.22 48.70 47.40 48.07 51.92 53.47 54.50 53.30 53.36 57.42 56.97 53.12 54.89 59.40 61.65 61.56 71.53 73.72 74.88 76.77 77.36 76.91 75.01 72.85 74.30 75.91 76.39 76.36 76.23 76.13 75.88 75.66 75.54 75.41 74.90 74.67 74.77 75.19 75.09 74.27 73.41 71.88 71.12 71.57 72.27 72.56 73.44
53.65 47.66 46.44 47.79 47.64 49.10 52.01 50.86 52.95 54.21 52.52 53.74 55.37 55.59 57.37 59.28 59.95 60.52 67.67 71.58 73.08 75.34 76.55 76.96 75.63 73.24 72.10 72.60 75.87 76.10 75.89 76.07 75.81 75.57 75.41 74.02 73.06 72.83 73.25 74.44 74.92 73.70 72.51 71.18 71.74 71.88 73.42 74.33 74.72
50.01 48.14 48.12 50.18 50.70 49.52 51.17 50.68 51.43 50.97 51.20 51.69 52.83 55.24 56.80 57.98 58.58 58.71 59.79 68.99 71.39 72.65 75.43 75.96 75.76 74.38 72.44 71.81 74.53 73.95 74.46 74.36 73.69 73.79 74.01 72.50 73.63 73.65 71.27 74.50 74.07 73.30 72.19 72.16 72.41 73.89 75.05 74.92 75.35
51.64 47.88 50.64 50.66 51.37 51.94 50.90 51.25 53.09 51.16 50.15 52.56 52.26 54.21 55.91 56.51 57.57 57.91 58.77 62.22 71.88 73.40 75.16 74.87 76.27 76.42 73.57 71.76 73.54 71.66 72.38 72.42 73.17 73.63 74.37 74.54 73.78 73.19 72.49 73.09 71.11 71.11 72.12 73.76 74.15 74.91 75.35 74.70 74.04
49.23 51.55 51.73 52.14 52.32 51.71 50.93 52.71 51.39 52.17 52.40 54.58 54.89 55.59 55.87 55.62 56.11 57.31 58.32 60.38 70.68 72.46 75.51 75.76 76.17 75.50 75.63 73.64 72.73 71.57 71.35 71.65 72.11 73.06 74.62 75.30 72.98 72.97 72.19 71.85 70.35 72.05 72.34 74.31 74.88 74.72 75.25 74.29 73.94
50.11 51.41 52.07 52.52 52.22 51.89 52.13 50.50 50.70 51.07 53.74 54.96 55.26 55.46 55.36 56.16 57.08 59.24 60.22 62.24 66.00 73.49 75.09 75.38 77.31 76.08 75.88 76.85 73.58 72.42 72.36 71.44 72.16 73.19 74.30 73.61 72.11 73.40 72.08 72.10 70.69 71.62 72.80 73.16 74.45 74.74 75.16 73.09 73.72
51.85 50.95 50.99 51.62 51.42 51.51 49.93 50.18 51.14 52.04 54.29 54.11 54.38 54.45 55.54 56.34 57.49 59.07 60.69 63.61 64.76 71.06 74.56 76.07 76.18 76.94 75.56 75.93 76.29 74.10 74.58 73.57 73.01 73.04 73.42 73.87 72.33 74.81 72.09 71.73 71.51 72.70 73.49 73.26 73.82 74.54 73.78 73.58 74.13
51.78 48.57 50.72 51.26 50.82 50.08 51.78 48.40 49.29 52.83 53.27 53.36 53.91 54.78 55.53 56.90 57.68 58.13 59.65 62.07 64.50 67.44 73.24 75.23 75.32 75.87 77.32 75.28 75.34 74.54 74.44 73.35 72.88 72.90 75.04 74.12 74.90 75.60 74.13 71.97 72.56 73.17 74.72 74.21 75.17 75.06 74.30 73.68 73.53
49.98 50.50 46.36 50.43 50.51 51.41 50.68 45.45 51.08 52.99 52.49 52.18 52.88 53.52 54.17 55.77 57.33 58.86 59.94 61.74 63.45 65.70 68.37 74.87 75.80 75.09 74.47 75.93 75.38 74.16 73.83 73.61 74.03 73.60 73.30 73.12 74.01 74.69 75.38 72.99 73.27 74.04 75.20 74.35 73.49 72.62 72.58 73.31 73.40
50.12 45.40 46.68 48.20 52.28 50.64 50.16 47.40 51.89 53.95 53.48 52.86 53.31 54.42 54.60 55.15 56.94 59.15 60.01 60.70 63.20 65.04 67.67 71.71 75.46 75.24 75.12 75.94 75.22 75.23 76.17 73.76 73.34 73.54 72.16 73.80 71.74 72.26 74.56 73.75 73.76 77.24 74.12 73.86 72.96 72.57 73.72 74.28 73.76
44.33 44.78 46.14 45.88 49.74 50.64 49.15 48.84 51.85 53.53 53.32 53.17 53.98 54.47 54.97 55.30 55.89 58.19 60.19 60.94 62.62 64.31 69.43 72.68 74.13 76.38 76.06 73.99 76.43 74.86 73.82 73.46 72.95 72.28 71.66 72.39 70.97 72.50 75.22 73.47 76.39 76.03 74.46 74.31 73.00 74.84 74.55 73.59 72.05
47.19 45.95 45.42 48.15 50.89 49.22 48.40 48.75 50.49 52.68 53.05 52.91 53.45 54.02 54.79 55.51 57.20 58.22 59.78 61.30 62.89 64.90 69.35 71.61 74.02 76.60 75.99 72.32 72.59 73.26 71.68 71.46 72.40 72.28 73.59 72.96 72.34 74.09 76.27 73.06 75.15 75.82 74.40 74.65 75.27 73.66 73.34 72.02 72.27
47.22 45.77 45.71 48.59 50.10 49.06 48.47 48.22 51.25 52.74 52.89 53.58 53.61 53.87 54.61 55.46 56.12 57.02 58.58 60.65 64.89 66.02 68.98 71.65 74.37 75.88 75.77 72.72 75.30 73.86 73.52 72.72 72.75 72.35 73.11 72.83 73.03 75.90 75.49 76.39 76.01 75.63 74.36 76.11 74.25 74.09 71.43 71.18 69.79
47.10 45.67 45.72 45.24 48.06 49.84 49.19 47.16 49.39 51.13 52.05 53.05 53.90 54.62 54.79 54.40 54.59 56.19 57.10 58.73 61.27 65.23 67.99 70.13 73.82 75.73 76.25 75.25 72.96 72.52 73.32 73.85 71.90 71.89 70.87 72.83 74.06 76.00 76.87 75.86 76.06 76.63 76.21 73.50 74.09 73.69 72.73 67.92 67.89
43.71 48.81 47.21 45.76 45.00 41.79 49.08 40.29 47.66 49.92 49.85 51.09 51.90 52.90 53.26 53.98 55.86 57.19 57.87 58.26 59.86 62.64 67.52 69.99 73.02 75.08 75.35 75.57 73.02 71.14 70.49 71.18 71.26 70.83 71.17 72.33 74.53 75.20 75.68 76.83 76.97 77.23 74.25 76.38 73.56 73.36 72.59 70.55 66.28
45.41 48.94 47.28 47.00 45.52 45.16 45.65 43.35 46.47 48.75 47.12 49.00 51.05 52.21 52.99 54.91 55.66 56.33 57.20 58.22 59.21 60.99 64.33 69.22 73.32 74.27 74.87 74.29 72.60 71.61 71.09 72.55 71.93 71.20 71.91 72.75 75.94 76.29 74.98 76.30 75.68 75.87 73.75 75.46 73.83 72.47 71.67 69.58 67.98
50.16 48.06 48.02 47.90 46.30 40.07 44.91 43.25 43.32 46.11 47.02 48.77 49.85 51.20 52.64 54.34 55.39 56.67 58.00 59.04 59.52 60.04 61.96 67.74 71.88 72.96 73.72 73.70 71.71 71.11 72.83 73.25 70.15 70.15 69.71 69.98 72.62 73.91 75.87 74.67 74.74 75.58 74.58 73.19 72.11 71.38 70.94 70.58 69.44
48.77 45.75 38.85 38.51 36.87 38.19 44.81 43.24 45.04 49.03 48.86 49.49 49.56 51.02 52.12 53.75 54.57 55.98 56.94 57.55 59.06 59.27 60.27 65.13 69.73 71.40 72.15 72.41 72.00 71.22 73.73 73.62 68.84 70.96 68.95 70.41 72.03 72.85 74.91 74.56 74.32 73.44 73.13 71.87 71.07 70.03 69.68 68.46 66.91
45.53 44.51 37.27 30.96 34.84 38.57 44.64 39.85 44.41 50.68 51.48 51.20 51.63 52.15 53.23 53.68 54.99 55.25 57.34 58.14 58.58 59.94 60.08 63.08 69.67 70.29 71.15 71.47 71.83 72.74 70.95 71.92 71.05 71.10 69.48 71.69 72.63 73.56 74.89 73.19 73.40 72.17 70.77 69.98 69.72 68.07 66.85 67.71 65.59
44.88 40.96 46.82 40.02 42.43 38.12 41.75 45.12 49.28 50.13 50.17 50.01 50.32 51.68 52.59 53.76 55.39 55.69 57.16 58.16 58.76 59.79 61.12 62.09 69.81 70.31 70.36 71.53 71.87 72.88 73.32 70.39 70.54 72.35 70.16 71.92 73.96 73.97 72.62 72.10 71.12 69.77 68.79 68.25 68.53 66.10 66.14 66.03 65.82
47.58 48.85 40.35 41.73 32.92 32.13 38.62 40.39 42.04 46.57 48.00 50.07 49.82 51.36 52.58 54.52 54.35 55.23 56.77 58.15 58.93 59.98 61.31 63.20 67.50 69.41 69.84 70.79 71.20 71.74 71.96 72.39 69.78 71.34 71.25 72.63 74.60 72.76 72.19 70.95 69.96 67.70 66.94 66.91 68.51 65.87 65.79 64.97 63.26
45.98 44.31 43.87 43.27 41.52 34.75 33.59 38.55 48.50 47.51 48.78 48.78 50.73 52.36 52.59 53.51 54.84 54.27 56.55 57.89 58.65 60.02 61.00 62.19 66.09 68.52 69.44 70.68 70.85 71.23 70.09 68.63 70.93 72.41 73.62 74.66 73.93 71.90 70.57 69.38 67.64 66.38 65.52 65.82 67.54 66.39 63.75 62.36 62.31
47.34 45.39 43.93 35.08 37.08 39.16 37.49 38.46 49.59 49.58 50.25 50.66 49.90 51.80 53.75 54.69 54.71 55.73 55.82 57.91 58.36 59.68 60.93 62.74 65.13 68.06 68.97 69.82 69.87 69.95 69.80 69.26 69.42 70.14 70.46 71.27 71.73 70.66 70.13 68.25 66.74 65.34 64.60 65.51 64.25 62.68 62.06 61.32 60.41
MSLP
1010.05 1008.83 1007.48 1006.10 1004.67 1001.70 999.04 997.51 996.59 996.67 997.56 998.03 998.66 999.04 998.45 998.13 998.54 1000.31 1001.95 1002.42 1001.95 1003.05 1004.76 1006.02 1006.53 1007.17 1007.61 1008.18 1008.45 1009.14 1009.52 1010.02 1010.44 1010.66 1011.09 1011.40 1011.42 1011.49 1011.58 1011.61 1012.04 1012.18 1012.26 1012.44 1012.57 1012.74 1012.93 1013.05 1013.14
1009.16 1007.80 1006.96 1004.84 1002.82 999.65 997.56 996.96 996.34 997.56 998.04 999.18 999.55 999.77 999.36 998.96 999.66 1000.32 1001.23 1002.41 1002.06 1002.99 1004.79 1005.86 1006.92 1007.32 1007.68 1008.15 1008.64 1009.08 1009.76 1010.20 1010.52 1011.06 1011.41 1011.66 1011.82 1011.76 1011.96 1011.96 1012.18 1012.39 1012.34 1012.60 1012.84 1013.00 1013.10 1013.19 1013.29
1009.65 1007.58 1005.73 1003.30 1001.35 999.05 996.98 996.20 996.60 997.94 998.80 999.45 999.48 999.87 999.52 1000.30 1000.83 1001.62 1002.54 1002.52 1002.68 1003.15 1004.68 1006.06 1007.27 1007.62 1008.02 1008.25 1008.78 1009.29 1009.89 1010.19 1010.75 1011.28 1011.50 1011.94 1012.10 1012.08 1012.18 1012.31 1012.33 1012.50 1012.48 1012.62 1012.87 1013.07 1013.25 1013.34 1013.33
1007.74 1006.86 1005.57 1002.70 999.98 998.44 997.85 997.68 998.75 998.92 999.63 999.95 1000.01 1000.01 1000.00 1001.39 1002.10 1002.77 1002.98 1002.73 1002.45 1002.78 1003.99 1006.75 1007.61 1007.91 1008.26 1008.51 1009.17 1009.57 1010.20 1010.48 1010.79 1011.30 1011.54 1011.90 1012.14 1012.30 1012.42 1012.55 1012.62 1012.66 1012.74 1012.82 1013.04 1013.16 1013.24 1013.39 1013.37
1007.38 1005.18 1003.37 1001.46 1000.10 998.98 998.50 999.47 1000.04 1000.02 999.82 999.79 1000.39 1000.48 1000.02 1000.86 1002.14 1002.46 1002.56 1003.29 1002.54 1002.54 1003.48 1006.30 1007.64 1008.07 1008.42 1008.94 1009.32 1009.75 1010.28 1010.58 1010.92 1011.39 1011.75 1012.08 1012.25 1012.36 1012.59 1012.68 1012.78 1012.82 1012.95 1012.94 1013.10 1013.26 1013.36 1013.35 1013.36
1005.82 1004.50 1002.49 1000.48 999.17 998.69 998.78 1000.03 1000.72 1000.67 1000.23 1000.18 1000.55 1000.91 1000.67 1000.63 1001.70 1002.52 1002.16 1002.92 1002.78 1002.86 1003.83 1006.02 1007.63 1008.29 1008.52 1009.04 1009.44 1010.18 1010.42 1010.64 1011.04 1011.46 1011.91 1012.12 1012.33 1012.42 1012.65 1012.73 1012.81 1012.90 1013.07 1013.08 1013.08 1013.24 1013.40 1013.29 1013.28
1005.44 1003.40 1002.04 1000.64 999.35 998.58 999.52 1000.87 1001.56 1001.52 1000.96 1000.57 1000.85 1001.04 1001.19 1000.59 1001.92 1002.49 1002.60 1002.99 1003.28 1003.22 1004.20 1006.14 1007.31 1008.18 1008.75 1009.25 1009.51 1009.92 1010.88 1010.94 1011.28 1011.52 1011.98 1012.18 1012.28 1012.62 1012.48 1012.88 1012.78 1012.84 1013.13 1013.15 1013.03 1013.15 1013.41 1013.28 1013.21
1005.64 1004.02 1002.25 1000.70 1000.11 999.73 1000.10 1001.40 1002.46 1002.73 1002.06 1001.67 1002.22 1001.93 1001.20 1001.43 1002.37 1002.70 1002.32 1002.36 1003.04 1003.39 1004.38 1005.84 1006.83 1007.85 1008.24 1008.98 1009.92 1009.84 1010.63 1010.96 1011.26 1011.72 1012.14 1012.31 1012.48 1012.58 1012.57 1012.88 1012.88 1012.88 1013.04 1013.10 1013.06 1013.05 1013.14 1013.15 1013.05
1006.08 1004.39 1002.06 1000.77 1000.33 1000.96 1001.32 1002.70 1003.05 1003.50 1003.88 1003.48 1003.08 1002.56 1002.21 1002.32 1002.73 1002.57 1002.19 1003.02 1002.35 1002.84 1004.09 1005.46 1006.26 1007.09 1007.37 1008.04 1009.51 1010.13 1010.60 1010.97 1011.15 1011.51 1011.92 1012.21 1011.75 1012.14 1012.42 1012.39 1012.72 1012.82 1012.96 1013.08 1013.05 1012.95 1012.83 1012.70 1012.64
1005.82 1003.86 1002.30 1002.61 1002.66 1002.78 1002.80 1003.54 1003.69 1003.92 1003.70 1003.37 1002.88 1002.65 1002.63 1002.54 1002.52 1002.58 1002.43 1001.97 1003.12 1002.58 1003.60 1005.04 1005.76 1006.52 1006.91 1007.39 1008.90 1009.37 1009.91 1010.54 1010.69 1010.92 1011.45 1011.03 1010.76 1011.26 1011.30 1012.19 1012.80 1012.73 1012.86 1012.84 1012.70 1012.54 1012.13 1012.38 1011.68
1005.10 1004.42 1003.34 1004.01 1004.12 1004.41 1004.33 1004.09 1004.08 1003.77 1003.34 1003.20 1002.96 1002.68 1002.74 1002.68 1002.78 1002.82 1002.69 1001.97 1002.42 1003.26 1002.93 1004.47 1005.40 1006.14 1006.60 1006.96 1008.25 1008.52 1009.00 1009.44 1010.07 1010.37 1010.87 1010.27 1010.30 1011.03 1011.07 1011.71 1012.23 1012.10 1012.43 1011.97 1012.10 1011.91 1011.54 1011.16 1011.00
1005.96 1004.91 1004.74 1004.75 1004.77 1004.91 1004.72 1004.34 1004.02 1003.83 1003.48 1003.45 1003.32 1003.22 1003.26 1003.05 1002.97 1002.72 1002.30 1001.86 1002.10 1003.76 1004.43 1004.46 1005.35 1005.76 1006.26 1006.58 1007.70 1007.75 1008.07 1008.50 1009.00 1009.67 1010.46 1009.95 1010.32 1010.76 1010.49 1010.42 1010.74 1011.08 1011.03 1010.69 1011.02 1010.13 1011.27 1011.40 1011.62
1005.82 1005.20 1005.20 1005.13 1005.04 1004.84 1004.68 1004.30 1003.80 1003.45 1003.33 1003.33 1003.33 1003.30 1003.11 1003.02 1002.84 1002.97 1002.66 1002.44 1003.10 1004.01 1004.92 1005.20 1005.16 1005.98 1006.03 1006.22 1006.99 1007.16 1007.52 1007.97 1008.36 1009.03 1009.75 1009.64 1009.98 1010.40 1010.27 1010.23 1010.11 1010.57 1010.26 1010.69 1010.56 1010.59 1011.24 1011.36 1011.34
1005.82 1005.90 1005.46 1005.06 1004.50 1004.50 1004.37 1003.84 1003.48 1002.99 1003.01 1003.14 1003.33 1003.14 1002.90 1002.84 1002.79 1003.10 1003.14 1003.11 1003.57 1003.49 1004.57 1005.34 1005.63 1006.18 1006.04 1006.24 1006.63 1006.74 1007.18 1007.57 1007.93 1008.42 1009.16 1009.50 1009.57 1009.94 1010.02 1010.36 1010.21 1010.19 1010.26 1010.34 1010.33 1010.41 1011.09 1011.37 1011.49
1006.43 1005.88 1004.84 1004.04 1004.04 1004.06 1004.08 1003.46 1002.18 1002.20 1002.74 1003.14 1003.10 1003.04 1002.87 1002.85 1002.93 1003.00 1003.17 1003.33 1003.64 1003.93 1003.99 1005.14 1005.81 1005.98 1006.40 1006.25 1006.76 1006.86 1007.06 1007.22 1007.68 1008.12 1008.73 1009.07 1009.55 1009.95 1009.72 1009.88 1009.94 1010.05 1010.30 1010.59 1010.56 1011.17 1011.44 1011.50 1012.22
1005.82 1005.09 1003.66 1002.43 1003.54 1003.53 1003.58 1002.72 1001.88 1001.92 1002.77 1002.85 1002.80 1002.90 1002.93 1002.72 1002.77 1002.92 1003.01 1003.22 1003.59 1003.78 1003.96 1004.19 1005.36 1006.02 1006.37 1006.13 1006.59 1006.80 1006.94 1007.27 1007.61 1008.01 1008.76 1009.06 1009.32 1009.86 1009.75 1009.42 1009.82 1009.76 1010.27 1010.55 1010.64 1011.25 1011.23 1011.78 1012.50
1003.72 1003.79 1003.05 1002.76 1002.72 1003.38 1003.44 1002.36 1002.13 1002.10 1002.10 1002.25 1002.36 1002.26 1002.31 1002.16 1002.14 1002.33 1002.72 1002.99 1003.34 1003.72 1003.81 1003.89 1004.56 1005.44 1005.98 1006.15 1006.09 1006.30 1006.42 1006.94 1007.17 1007.53 1008.29 1009.05 1009.29 1009.56 1009.56 1009.12 1009.54 1009.90 1010.44 1010.56 1010.99 1011.20 1011.54 1012.19 1012.46
1004.96 1004.53 1003.95 1003.40 1003.17 1002.88 1002.52 1001.72 1001.68 1001.45 1001.37 1001.21 1001.04 1001.09 1001.52 1001.48 1001.55 1001.73 1002.00 1002.44 1002.70 1003.16 1003.46 1003.53 1003.63 1004.64 1005.44 1005.81 1005.85 1005.76 1006.04 1006.66 1006.78 1007.14 1007.92 1008.72 1009.00 1009.14 1009.33 1009.22 1009.65 1010.29 1010.64 1010.92 1010.98 1011.21 1011.87 1012.14 1012.27
1006.42 1005.66 1004.60 1003.87 1003.30 1002.94 1002.30 1001.43 1001.14 1001.08 1000.82 1000.55 1000.48 1000.36 1000.66 1000.87 1000.89 1001.16 1001.39 1001.84 1002.26 1002.71 1003.03 1003.19 1003.24 1003.67 1004.84 1005.50 1005.70 1005.28 1005.52 1005.94 1006.24 1006.78 1007.38 1008.43 1008.58 1008.79 1009.41 1009.02 1009.65 1010.39 1010.36 1010.64 1011.09 1011.63 1012.10 1012.00 1012.26
1006.26 1005.42 1004.33 1003.48 1003.20 1003.26 1002.34 1001.09 1000.41 999.96 999.85 1000.02 999.96 999.92 1000.05 1000.28 1000.26 1000.49 1000.88 1001.20 1001.68 1002.13 1002.42 1002.63 1002.79 1003.20 1004.04 1004.87 1005.13 1004.82 1004.86 1005.31 1005.35 1006.40 1007.04 1007.85 1008.09 1008.54 1009.01 1008.91 1009.49 1010.13 1010.23 1010.79 1011.36 1011.71 1011.72 1011.94 1012.38
1005.62 1005.05 1004.37 1004.21 1003.92 1003.16 1001.23 999.83 998.59 998.12 998.92 999.07 999.37 999.72 999.94 1000.04 1000.02 1000.15 1000.32 1000.50 1000.64 1001.32 1001.75 1001.88 1002.34 1002.64 1003.30 1004.17 1004.60 1004.62 1004.13 1004.64 1005.13 1005.84 1006.74 1007.26 1007.76 1008.14 1008.72 1008.98 1009.16 1009.71 1009.90 1010.80 1011.62 1011.86 1011.86 1011.71 1012.38
1005.80 1005.32 1005.32 1004.70 1003.84 1002.01 1001.44 998.70 998.20 997.68 998.12 998.52 999.08 999.14 999.39 999.53 999.58 999.70 999.76 999.90 999.78 1000.17 1000.92 1001.19 1001.62 1002.25 1002.85 1003.62 1004.01 1004.25 1004.18 1003.70 1004.29 1005.11 1006.21 1006.72 1007.35 1007.83 1008.30 1008.83 1009.18 1009.61 1009.94 1010.06 1011.35 1011.77 1011.77 1012.03 1012.04
1006.20 1005.92 1005.50 1004.44 1003.22 1002.18 1000.25 998.38 996.99 997.09 997.22 997.29 997.99 998.44 998.97 999.34 999.60 999.51 999.23 999.00 999.13 999.32 999.98 1000.54 1000.96 1001.76 1002.36 1003.08 1003.54 1003.96 1003.91 1003.48 1004.06 1004.72 1005.96 1006.26 1007.31 1007.68 1008.03 1008.72 1009.16 1009.60 1009.98 1010.44 1011.10 1011.80 1012.05 1011.97 1011.66
1005.84 1005.19 1004.28 1002.73 1001.79 1000.54 998.53 998.13 997.13 996.92 997.58 997.92 998.41 998.66 998.99 999.20 999.44 999.40 998.99 998.61 998.54 998.69 998.93 999.62 1000.38 1001.22 1002.09 1002.53 1003.18 1003.40 1003.48 1003.31 1004.04 1004.89 1005.84 1005.68 1006.87 1007.64 1007.87 1008.60 1009.27 1009.62 1010.09 1010.74 1011.34 1011.92 1012.07 1011.92 1011.90
1005.17 1004.88 1003.73 1001.36 1001.23 1000.14 999.74 998.31 996.80 996.79 997.67 998.16 998.50 998.45 998.86 999.24 999.21 999.09 998.45 998.25 998.04 998.47 998.60 998.50 999.68 1000.74 1001.86 1002.13 1002.80 1003.14 1003.31 1003.68 1004.48 1004.72 1005.08 1005.44 1006.54 1007.18 1007.68 1008.65 1009.23 1009.80 1010.17 1010.82 1011.19 1012.00 1012.08 1012.34 1012.34
1005.76 1005.84 1005.57 1004.33 1002.38 1000.64 999.44 997.81 996.71 996.59 997.33 997.96 998.56 998.85 999.18 999.18 998.92 998.92 999.10 999.05 998.61 998.22 998.12 998.07 999.27 1000.48 1001.39 1001.96 1002.41 1002.65 1002.84 1003.47 1004.25 1004.32 1005.41 1005.46 1005.87 1007.11 1007.94 1008.81 1009.42 1009.84 1010.19 1010.76 1011.38 1011.88 1012.07 1012.53 1012.71
1005.69 1005.97 1006.52 1005.98 1004.43 1002.33 999.95 997.94 998.04 997.60 998.02 998.32 998.58 998.85 998.90 998.89 998.77 999.02 999.01 999.02 998.71 998.70 998.31 997.85 998.60 1000.10 1000.84 1001.30 1001.90 1002.09 1002.79 1003.10 1003.44 1004.04 1004.96 1005.28 1005.39 1007.04 1008.14 1008.82 1009.38 1010.02 1010.10 1010.74 1011.59 1011.68 1012.01 1012.74 1012.99
1005.39 1005.77 1006.24 1006.60 1005.16 1002.72 1000.50 999.00 997.37 998.32 998.53 998.56 998.51 998.72 999.16 998.85 998.70 999.02 998.87 998.73 998.91 998.90 998.58 997.92 997.38 999.10 1000.53 1001.04 1001.70 1002.06 1002.72 1002.86 1003.09 1004.01 1004.76 1004.62 1005.15 1006.85 1008.01 1008.60 1009.41 1009.92 1010.18 1010.87 1011.40 1012.12 1012.18 1012.88 1013.15
1004.72 1005.30 1006.27 1007.61 1006.44 1004.42 1002.05 999.69 998.72 999.40 999.75 1000.00 999.78 999.79 999.88 999.64 999.25 999.25 999.36 998.73 998.94 998.72 998.47 997.49 996.87 997.71 999.55 1000.55 1000.86 1001.86 1002.82 1003.14 1002.88 1004.03 1004.61 1004.32 1005.56 1006.84 1007.48 1008.39 1009.21 1009.50 1010.13 1010.88 1011.54 1011.81 1012.40 1012.92 1013.37
1005.05 1005.10 1005.80 1007.60 1006.20 1005.20 1004.04 1000.48 1000.07 1000.33 1000.30 1000.42 1000.75 1000.57 1000.17 1000.16 999.92 999.21 999.08 998.90 998.85 998.46 998.22 997.08 996.66 996.66 998.10 999.74 1000.36 1001.21 1001.68 1002.22 1002.46 1004.45 1004.72 1004.91 1006.02 1006.57 1007.32 1008.14 1008.66 1009.34 1010.10 1010.88 1011.39 1011.92 1012.23 1013.08 1013.35
Wind_Speed
16 14 9 7 9 9 17 18 18 5 6 7 9 4 10 14 11 6 7 3 4 12 16 17 16 15 15 15 16 16 16 16 15 14 14 12 13 13 13 14 12 12 12 11 10 9 7 4 3
16 7 8 9 10 14 13 17 7 7 10 3 3 6 8 8 12 12 6 6 1 14 15 16 14 15 15 16 16 17 16 15 15 12 12 11 11 12 12 13 12 12 12 10 9 8 5 3 2
13 12 10 7 14 15 15 6 2 8 8 5 4 4 9 8 15 10 10 4 2 12 16 14 14 14 14 14 15 16 16 17 15 13 13 11 10 11 11 11 12 11 11 11 9 7 3 2 3
7 7 9 12 18 16 16 6 5 8 3 6 8 5 4 12 5 6 7 7 4 10 16 20 14 13 14 15 14 15 14 16 16 14 13 12 12 11 11 10 10 10 10 9 8 6 4 3 4
9 9 13 15 19 21 2 8 3 10 8 4 4 11 9 13 4 10 3 4 5 8 16 19 15 15 15 14 14 15 16 16 16 14 13 13 12 12 11 9 9 10 9 8 6 4 3 4 5
9 7 13 15 20 16 4 5 7 13 10 5 7 10 8 4 3 11 8 2 2 7 13 16 15 13 15 15 15 12 15 16 16 15 13 13 12 12 11 9 10 9 7 6 5 4 3 4 5
13 11 15 18 18 12 3 3 4 14 16 12 5 7 9 8 11 9 6 3 2 8 11 13 15 15 15 14 16 16 13 14 14 15 13 13 12 11 11 8 9 9 6 4 3 3 2 3 2
8 11 18 16 12 14 4 5 8 7 13 14 5 9 14 10 12 12 7 2 7 10 17 13 15 15 15 15 13 18 16 15 15 14 12 12 11 11 10 8 8 7 6 3 1 0 1 3 4
8 11 13 14 6 8 3 4 8 2 11 15 17 17 17 16 14 11 3 2 6 10 16 12 16 16 15 16 15 16 16 16 16 15 14 12 10 11 13 6 11 7 5 3 2 3 6 10 9
10 11 14 12 12 10 10 9 10 9 12 15 15 16 16 13 12 11 13 6 8 11 18 15 13 16 15 13 16 15 14 12 13 13 14 11 10 10 11 11 8 6 6 6 6 7 11 12 9
7 12 15 8 6 9 13 15 15 14 15 13 13 13 13 14 12 13 13 15 10 10 4 15 15 14 16 13 11 9 9 10 10 14 13 12 8 7 8 7 7 7 10 8 9 8 9 4 8
12 14 9 13 11 11 15 16 18 18 17 15 15 17 15 13 13 14 15 15 9 8 10 8 7 12 15 10 10 12 11 11 10 12 13 7 6 7 8 7 10 7 7 2 4 3 7 3 3
15 12 9 13 14 15 15 18 20 19 17 15 13 18 16 13 12 11 12 10 3 11 11 11 12 9 12 11 11 10 10 11 12 12 13 9 10 7 7 6 5 6 5 6 4 2 4 3 4
14 11 15 16 16 12 13 16 16 17 11 11 11 15 17 14 12 9 9 9 7 9 11 13 13 14 12 10 12 8 9 11 11 11 12 12 10 8 8 7 7 5 3 5 5 4 2 3 4
12 17 18 17 10 8 11 16 24 16 3 11 12 13 14 15 13 13 10 10 9 9 10 13 13 16 15 16 12 10 9 10 10 10 12 12 9 8 9 8 7 6 4 4 2 1 2 5 8
17 17 13 9 7 14 7 15 16 5 8 11 11 10 14 17 17 14 13 12 10 11 11 14 14 16 17 16 14 12 11 10 9 8 8 10 11 11 9 8 6 6 5 7 3 4 3 4 5
14 11 10 15 10 7 14 19 18 11 12 15 17 17 16 17 18 16 14 14 13 13 12 14 17 19 19 18 15 14 13 12 11 9 11 12 12 12 8 7 7 6 5 3 3 5 3 1 3
17 19 18 18 16 17 20 23 19 20 19 21 21 18 16 18 19 17 14 14 15 11 12 13 14 17 19 14 12 12 12 12 11 11 11 13 11 13 9 6 7 4 5 5 5 3 2 2 4
15 18 21 20 18 17 20 21 20 18 20 20 21 19 17 19 18 17 15 13 14 12 12 14 15 16 14 12 13 13 14 11 12 11 13 14 13 12 10 9 8 8 7 4 6 4 4 4 2
16 19 21 17 13 16 21 23 21 21 19 20 20 19 18 18 18 16 16 15 14 12 14 15 16 17 16 11 13 11 13 13 13 12 12 14 13 12 10 5 9 7 5 6 5 6 4 4 4
15 16 15 18 18 21 25 21 22 5 8 12 13 14 15 17 18 16 16 17 15 14 15 16 16 18 16 18 12 12 10 11 12 12 12 12 14 12 10 8 7 9 5 8 6 7 6 5 4
15 15 17 18 18 16 17 20 16 12 8 11 12 11 15 13 13 15 16 16 16 16 16 16 16 18 17 19 14 15 10 14 12 13 11 12 14 14 13 10 7 6 6 7 9 6 6 6 5
16 16 20 21 19 19 22 15 10 8 12 8 8 9 8 9 11 15 16 15 16 16 16 15 15 16 18 17 14 11 14 11 12 11 12 12 11 13 11 9 7 7 7 7 7 7 7 6 4
16 18 20 26 18 16 13 5 10 11 12 9 8 9 8 10 12 14 16 13 12 15 17 16 15 16 18 18 15 15 15 13 10 13 13 12 11 7 11 9 7 8 7 7 7 7 7 5 4
16 17 12 13 5 14 6 14 15 13 6 10 13 12 11 12 13 16 12 13 9 13 17 16 17 16 18 19 18 18 16 13 10 10 9 10 11 9 9 9 8 9 8 9 8 7 7 5 4
15 9 7 9 14 20 27 18 17 12 10 5 10 11 12 13 13 9 12 14 12 15 16 18 16 17 18 19 19 18 14 13 11 14 10 8 9 8 12 9 10 11 10 10 8 7 6 6 5
5 10 8 17 20 18 18 19 18 11 10 4 7 9 12 11 8 7 10 11 9 9 18 17 19 18 18 18 15 16 15 13 14 14 12 12 12 10 12 10 10 11 11 11 10 8 7 7 7
13 9 10 6 8 14 15 22 9 13 17 17 6 8 8 15 8 9 12 8 12 9 15 19 17 20 19 20 17 14 17 15 10 10 12 16 11 16 14 13 11 12 12 12 9 9 10 8 7
7 12 6 8 11 15 17 10 9 19 14 15 20 16 10 17 21 10 15 15 13 13 16 18 15 18 18 19 19 18 14 10 8 9 15 11 13 14 16 16 15 14 14 12 8 9 11 10 7
10 15 2 3 11 8 14 21 24 7 10 14 14 18 20 22 21 21 13 17 14 14 13 14 17 18 18 21 18 17 14 11 9 11 11 11 15 13 15 16 15 14 14 11 12 12 12 11 10
Wind_Direction
277 238 247 245 239 233 251 236 251 110 232 72 7 235 323 353 345 56 118 27 183 153 150 158 147 154 155 157 151 150 150 149 155 157 157 156 148 142 134 125 126 126 122 121 121 117 106 90 50
290 241 235 266 247 243 232 231 179 254 64 83 229 267 262 273 44 80 74 28 141 139 145 165 150 152 154 153 152 144 153 151 151 155 153 152 147 137 130 129 130 129 126 122 119 113 107 89 26
252 251 256 228 234 254 268 16 80 234 74 279 282 224 318 17 47 11 32 63 122 145 147 140 151 150 153 146 149 146 154 149 147 150 147 148 142 135 133 134 134 136 131 129 125 119 109 48 8
218 201 255 257 255 236 263 30 325 321 231 231 269 288 177 69 35 13 358 330 220 176 148 131 147 147 147 144 147 148 150 145 143 149 147 145 143 137 134 138 138 137 134 129 124 124 101 33 356
240 256 245 238 249 266 163 308 353 275 271 240 184 272 259 132 123 17 38 323 269 176 140 145 148 149 146 148 145 150 149 144 144 146 145 144 144 137 137 143 140 137 136 132 126 101 63 29 351
232 255 247 247 243 241 239 289 235 271 272 251 255 244 273 92 54 351 46 63 277 169 139 134 144 148 146 149 142 147 147 144 145 145 147 143 141 137 140 150 142 138 138 135 117 87 44 13 353
254 250 253 270 278 287 129 3 302 267 261 253 316 298 275 182 56 347 347 125 208 147 144 145 163 159 146 148 148 142 153 142 143 142 145 142 140 141 143 156 147 144 144 151 124 98 29 7 1
299 284 270 266 260 265 299 107 280 286 275 320 2 248 210 360 3 310 321 295 171 159 137 161 174 175 173 160 154 146 151 144 139 138 142 141 140 146 150 162 158 155 163 157 133 178 189 195 174
268 264 259 272 242 271 11 279 290 198 286 290 281 279 292 313 304 298 243 239 232 182 139 174 177 179 181 171 160 150 150 149 143 144 149 159 177 175 161 136 150 171 173 180 224 248 217 198 195
260 274 281 28 348 316 315 297 284 288 263 263 271 271 266 269 293 290 291 211 263 204 157 167 192 174 191 169 159 175 169 180 182 177 174 195 176 193 197 140 163 187 199 205 209 219 218 203 193
278 267 321 317 303 312 295 284 276 264 267 263 276 289 308 297 287 288 276 280 170 281 249 164 178 169 198 175 163 178 173 177 188 191 186 215 162 170 184 154 184 193 201 200 192 193 220 28 346
277 276 281 291 306 286 278 286 282 275 273 284 284 283 283 280 274 275 266 268 164 189 236 211 137 176 192 170 168 180 177 180 186 191 190 208 188 172 211 184 188 198 173 203 257 182 56 339 307
260 271 301 286 283 277 282 274 277 277 273 269 260 268 270 268 264 279 269 276 307 190 202 254 171 189 193 177 179 189 188 181 187 180 188 177 204 180 197 193 191 196 186 174 198 151 51 10 184
322 290 286 278 275 281 276 278 276 270 259 249 254 263 270 268 268 255 276 285 245 245 192 213 209 199 198 197 186 184 197 181 185 180 182 186 209 180 184 177 216 187 200 215 241 112 66 338 38
285 280 271 259 248 274 286 279 251 261 323 271 252 255 264 275 272 272 255 246 242 244 215 200 205 195 208 190 197 187 191 187 187 184 170 186 215 181 195 188 203 189 199 242 227 86 134 225 86
245 260 276 146 208 250 248 275 291 174 239 256 251 264 269 273 274 266 268 257 271 233 234 200 199 202 204 194 187 191 187 182 185 173 165 191 198 182 219 190 197 175 205 217 168 219 199 74 116
198 270 289 301 292 283 257 277 294 280 276 267 263 262 266 262 264 256 248 248 230 240 238 226 192 203 198 205 187 194 181 194 187 170 176 190 195 187 211 186 183 137 214 181 168 224 97 102 136
325 310 301 299 300 301 287 279 272 276 275 272 270 268 255 265 262 267 252 242 243 238 225 236 210 204 204 205 199 188 178 198 186 177 180 179 194 187 208 183 121 159 206 193 202 132 153 156 216
295 283 284 287 289 295 286 286 284 275 265 265 268 263 262 262 259 258 254 245 243 223 230 224 220 201 202 199 201 192 184 200 184 188 167 179 192 187 198 181 163 204 204 221 135 161 196 217 134
279 279 278 289 303 309 293 286 287 272 266 264 267 272 264 267 265 256 252 245 231 225 222 225 225 213 200 193 205 199 192 196 186 183 172 178 191 185 184 212 173 185 181 143 164 192 186 213 167
290 293 312 318 306 284 271 271 272 244 257 270 245 265 278 276 275 271 266 261 233 211 223 222 216 216 198 199 203 221 191 191 183 177 178 175 190 178 193 212 177 165 225 163 184 193 213 188 173
298 337 314 297 293 291 319 290 281 258 271 263 283 276 252 272 272 273 260 253 242 212 214 223 214 216 202 199 206 207 210 187 186 179 180 170 185 183 193 186 185 164 200 139 172 194 212 254 178
293 309 297 279 272 277 270 250 281 304 284 296 251 238 295 281 284 280 268 252 237 222 217 217 212 214 206 200 203 206 212 189 181 167 158 172 180 184 176 173 166 162 216 129 150 183 213 182 262
274 286 295 273 251 246 301 312 300 319 345 322 292 266 280 292 286 294 281 270 247 224 225 205 210 205 210 197 199 205 199 191 160 179 172 172 178 177 185 164 160 166 195 148 172 183 187 241 208
314 308 311 314 170 255 198 294 310 333 328 314 316 282 243 272 292 289 308 302 264 228 241 204 205 205 207 201 200 197 190 181 174 181 157 165 173 181 163 165 165 172 167 160 154 178 160 172 181
305 307 280 312 310 315 315 294 288 305 319 270 269 283 301 273 273 305 319 302 297 293 218 234 185 211 209 205 197 197 187 182 181 168 166 199 171 177 154 163 172 162 156 155 152 158 165 141 152
309 276 294 281 284 277 274 274 276 39 277 300 280 255 258 285 289 302 286 298 302 303 285 245 183 201 210 200 203 194 194 177 179 185 187 181 172 157 160 166 163 161 151 151 164 147 142 156 162
246 291 296 239 279 303 304 309 329 348 335 322 294 262 312 299 306 315 305 308 316 305 291 281 208 186 206 201 201 199 194 185 185 173 203 188 174 147 158 159 157 156 147 153 177 155 137 157 160
240 235 216 299 276 291 294 286 354 332 319 1 341 343 317 331 322 300 305 306 309 308 287 268 231 195 194 207 198 191 187 175 170 202 208 181 144 151 159 162 161 152 152 160 150 149 147 158 144
269 276 219 206 278 259 287 281 284 314 298 319 319 310 316 319 306 318 323 305 296 290 287 261 256 199 198 210 196 192 169 168 165 209 201 148 158 156 164 161 157 153 156 155 160 158 155 156 150